TimeCET,TemperatureF,Dew PointF,Humidity,Sea Level PressureIn,VisibilityMPH,Wind Direction,Wind SpeedMPH,Gust SpeedMPH,PrecipitationIn,Events,Conditions,WindDirDegrees,DateUTC
12:00 AM,28.4,28.4,100,30.42,1.9,SW,4.6,-,N/A,,Mist,220,2012-11-14 23:00:00
12:30 AM,30.2,28.4,93,30.39,1.9,Variable,2.3,-,N/A,,Mist,0,2012-11-14 23:30:00
1:00 AM,29,28,95,30.46,2,SSW,4.5,,,,Mist,200,2012-11-15 00:00:00
1:00 AM,28.4,28.4,100,30.39,2.5,South,3.5,-,N/A,,Mist,190,2012-11-15 00:00:00
1:30 AM,30.2,28.4,93,30.39,2.5,South,2.3,-,N/A,,Mist,190,2012-11-15 00:30:00
2:00 AM,30.2,28.4,93,30.39,3.1,South,3.5,-,N/A,,Mist,180,2012-11-15 01:00:00
2:30 AM,30.2,28.4,93,30.39,3.1,SSW,4.6,-,N/A,,Mist,200,2012-11-15 01:30:00
3:00 AM,28.4,26.6,93,30.36,-9999.0,SW,5.8,-,N/A,,Mist,230,2012-11-15 02:00:00
3:30 AM,28.4,26.6,93,30.36,-9999.0,South,2.3,-,N/A,,Mist,190,2012-11-15 02:30:00
4:00 AM,28.4,26.6,93,30.36,3.1,SSW,4.6,-,N/A,,Mist,200,2012-11-15 03:00:00
4:30 AM,26.6,24.8,93,30.36,3.1,Variable,1.2,-,N/A,,Mist,0,2012-11-15 03:30:00
5:00 AM,26.6,26.6,100,30.36,3.1,SE,1.2,-,N/A,,Mist,140,2012-11-15 04:00:00
5:30 AM,28.4,26.6,93,30.36,3.1,Calm,Calm,-,N/A,,Mist,0,2012-11-15 04:30:00
6:00 AM,26.6,26.6,100,30.33,2.5,Calm,Calm,-,N/A,,Mist,0,2012-11-15 05:00:00
6:30 AM,26.6,24.8,93,30.36,2.5,Calm,Calm,-,N/A,,Partly Cloudy,0,2012-11-15 05:30:00
7:00 AM,27,26,94,30.41,2,SSW,4.5,,,,Mist,200,2012-11-15 06:00:00
7:00 AM,28.4,26.6,93,30.33,2.5,SSW,3.5,-,N/A,,Partly Cloudy,200,2012-11-15 06:00:00
7:30 AM,26.6,24.8,93,30.33,3.1,SW,3.5,-,N/A,,Unknown,230,2012-11-15 06:30:00
8:00 AM,28.4,26.6,93,30.33,3.1,WSW,3.5,-,N/A,,Mist,240,2012-11-15 07:00:00
8:30 AM,30.2,28.4,93,30.33,3.1,WSW,3.5,-,N/A,,Mist,240,2012-11-15 07:30:00
9:00 AM,32.0,30.2,93,30.33,3.1,WSW,3.5,-,N/A,,Mist,240,2012-11-15 08:00:00
9:30 AM,35.6,32.0,87,30.33,3.1,WSW,5.8,-,N/A,,Mist,250,2012-11-15 08:30:00
10:00 AM,37.4,33.8,87,30.33,5.0,WSW,11.5,-,N/A,,Unknown,240,2012-11-15 09:00:00
10:30 AM,41.0,35.6,81,30.33,5.0,WSW,11.5,-,N/A,,Unknown,240,2012-11-15 09:30:00
11:00 AM,41.0,35.6,81,30.30,5.6,WSW,17.3,-,N/A,,Unknown,240,2012-11-15 10:00:00
11:30 AM,42.8,37.4,81,30.30,-9999.0,WSW,15.0,-,N/A,,Clear,240,2012-11-15 10:30:00
12:00 PM,44.6,37.4,76,30.27,-9999.0,WSW,15.0,-,N/A,,Clear,240,2012-11-15 11:00:00
12:30 PM,46.4,37.4,71,30.27,-9999.0,WSW,15.0,-,N/A,,Clear,240,2012-11-15 11:30:00
1:00 PM,47,38,61,30.29,9,WSW,13.4,,,,,250,2012-11-15 12:00:00
1:00 PM,46.4,39.2,76,30.27,-9999.0,WSW,15.0,-,N/A,,Clear,250,2012-11-15 12:00:00
1:30 PM,48.2,39.2,71,30.24,-9999.0,WSW,13.8,-,N/A,,Clear,250,2012-11-15 12:30:00
2:00 PM,46.4,39.2,76,30.24,-9999.0,WSW,10.4,-,N/A,,Clear,250,2012-11-15 13:00:00
2:30 PM,46.4,39.2,76,30.24,-9999.0,West,11.5,-,N/A,,Clear,260,2012-11-15 13:30:00
3:00 PM,44.6,37.4,76,30.24,-9999.0,WSW,9.2,-,N/A,,Clear,250,2012-11-15 14:00:00
3:30 PM,42.8,37.4,81,30.24,-9999.0,West,8.1,-,N/A,,Clear,260,2012-11-15 14:30:00
4:00 PM,41.0,37.4,87,30.24,5.6,WSW,5.8,-,N/A,,Unknown,250,2012-11-15 15:00:00
4:30 PM,37.4,33.8,87,30.24,5.0,West,3.5,-,N/A,,Unknown,260,2012-11-15 15:30:00
5:00 PM,39.2,35.6,87,30.24,4.3,Variable,2.3,-,N/A,,Unknown,0,2012-11-15 16:00:00
5:30 PM,39.2,35.6,87,30.24,5.0,South,3.5,-,N/A,,Unknown,170,2012-11-15 16:30:00
6:00 PM,37.4,35.6,93,30.24,5.6,South,4.6,-,N/A,,Unknown,180,2012-11-15 17:00:00
6:30 PM,35.6,32.0,87,30.24,5.0,South,3.5,-,N/A,,Unknown,190,2012-11-15 17:30:00
7:00 PM,35,33,92,30.29,4,SSW,4.5,,,,Mist,200,2012-11-15 18:00:00
7:00 PM,35.6,33.8,93,30.24,4.3,SSW,3.5,-,N/A,,Unknown,200,2012-11-15 18:00:00
7:30 PM,33.8,33.8,100,30.24,3.7,SW,3.5,-,N/A,,Unknown,230,2012-11-15 18:30:00
8:00 PM,35.6,33.8,93,30.24,3.7,Variable,2.3,-,N/A,,Unknown,0,2012-11-15 19:00:00
8:30 PM,32.0,32.0,100,30.24,2.5,ENE,2.3,-,N/A,,Mist,70,2012-11-15 19:30:00
9:00 PM,32.0,32.0,100,30.24,1.9,SE,3.5,-,N/A,,Mist,140,2012-11-15 20:00:00
9:30 PM,33.8,32.0,93,30.24,1.9,Variable,2.3,-,N/A,,Mist,0,2012-11-15 20:30:00
10:00 PM,30.2,28.4,93,30.24,2.2,Variable,2.3,-,N/A,,Mist,0,2012-11-15 21:00:00
10:30 PM,30.2,28.4,93,30.24,2.2,Variable,2.3,-,N/A,,Mist,0,2012-11-15 21:30:00
11:00 PM,30.2,30.2,100,30.24,2.2,East,2.3,-,N/A,,Mist,90,2012-11-15 22:00:00
11:30 PM,30.2,30.2,100,30.24,-9999.0,East,3.5,-,N/A,,Mist,80,2012-11-15 22:30:00